www.pogodaiklimat.ru
ПОГОДА в Крествью
Время
и дата
16:53 29.11
17:53 29.11
18:01 29.11
18:24 29.11
18:53 29.11
19:07 29.11
19:53 29.11
20:53 29.11
21:23 29.11
21:53 29.11
22:53 29.11
23:23 29.11
23:43 29.11
23:53 29.11
00:48 30.11
00:53 30.11
01:53 30.11
02:28 30.11
02:53 30.11
03:53 30.11
04:53 30.11
05:53 30.11
06:33 30.11
06:48 30.11
06:53 30.11
06:56 30.11
07:03 30.11
07:06 30.11
07:10 30.11
07:19 30.11
07:30 30.11
07:37 30.11
07:42 30.11
07:46 30.11
07:53 30.11
08:11 30.11
08:24 30.11
08:53 30.11
09:07 30.11
09:23 30.11
09:49 30.11
09:53 30.11
10:03 30.11
10:53 30.11
11:53 30.11
12:12 30.11
12:22 30.11
12:53 30.11
Ветер
(напр.,м/с)
Видим. Явления Облачность Т
(С)
Тd
(С)
f
(%)
Тe
(С)
Тes
(С)
Комфортность P
(гПа)
Po
(гПа)
Тmin
(С)
Tmax
(С)
R
(мм)
R24
(мм)
S
(см)
нст 3 16 км 10/10 780 м +21.7 +17.8 78 +26 +26 душно 1015.8 1008.0
нст 3 16 км 8/8 840 м +21.1 +17.8 81 +25 +25 комфорт 1015.7 1008.0 +21.1 +24.4
ЮВ 3 16 км 8/8 840 м +21.1 +17.8 81 +25 +25 комфорт 1008.0
нст 3 16 км 8/8 720 м +21.1 +17.8 81 +25 +25 комфорт 1008.0
нст 2 16 км 8/8 720 м +20.6 +17.8 84 +25 +25 комфорт 1015.9 1008.3
нст 2 16 км 2/2 750 м +20.6 +17.8 84 +25 +25 комфорт 1008.3
16 км 5/5 930 м +20.6 +17.8 84 +24 +24 комфорт 1016.0 1008.3
нст 3 16 км 5/5 630 м +20.6 +18.3 87 +25 +25 комфорт 1016.3 1008.7
нст 3 16 км 8/8 600 m
[Ac]
+21.1 +18.9 87 +25 +25 комфорт 1008.3
нст 3 16 км 8/8 570 м +21.7 +18.9 84 +27 +27 душно 1016.1 1008.3
нст 2 16 км 10/10 540 м +21.7 +19.4 87 +27 +27 душно 1015.9 1008.3
нст 3 16 км 10/10 630 м +21.7 +19.4 87 +27 +27 душно 1008.0
Ю 3 16 км 10/10 600 м +22.2 +19.4 84 +28 +28 душно 1007.7
Ю 4 16 км 10/10 540 м +22.2 +19.4 84 +28 +28 душно 1015.3 1007.7 +20.6 +22.2
Ю 4 16 км 10/10 420 м +23.0 +20.0 83 +30 +30 очень
душно
1007.7
Ю 4 16 км 10/10 420 м +22.8 +20.0 84 +29 +29 очень
душно
1015.2 1007.7
Ю 4 13 км слабый дождь 10/10 300 m
[Ns]
+22.2 +21.7 97 +29 +29 очень
душно
1014.5 1007.0
Ю 5 13 км 10/10 270 м +22.8 +22.2 96 +31 +31 очень
душно
1007.7
Ю 4 11 км 10/10 300 м +22.8 +22.2 96 +31 +31 очень
душно
1014.7 1007.3 1.3
Ю 5
{9}
14 км 10/10 300 м +23.3 +22.8 97 +32 +32 очень
душно
1014.7 1007.0
ЮЗ 5
{9}
16 км 10/10 360 м +23.9 +22.8 94 +32 +32 очень
душно
1014.5 1007.0
ЮЗ 5
{10}
16 км 10/10 360 м +23.9 +22.8 94 +32 +32 очень
душно
1015.2 1007.7 +22.2 +23.9 1.3 1.3
ЮЗ 4 16 км гроза 10/10 420 m
[Cb]
+23.9 +22.8 94
С 6
{9}
16 км гроза со слабым дождем 10/10 360 m
[Cb]
+24.0 +23.0 94
СЗ 17
{25}
1 км гроза с сильным дождем, дымка 10/10 300 m
[Cb]
+21.7 +20.0 90 1018.9
З 11
{25}
800 м гроза с сильным дождем, туман 10/10 240 m
[Cb]
+20.0 +18.3 90
З 8
{20}
400 м гроза с сильным дождем, туман 10/10 270 m
[Cb]
+19.4 +18.9 97
З 6
{20}
800 м гроза с сильным дождем, туман ?/? +19.4 +18.9 97
З 4
{14}
2 км гроза с сильным дождем, дымка 10/10 300 m
[Cb]
+19.4 +18.9 97
З 3 5 км гроза с дождем 10/8 690 m
[Ac Cb]
+19.0
З 2 6 км гроза, сильный дождь 10/5 900 m
[Ac Cb]
+19.0
З 2 5 км гроза с дождем 10/8 720 m
[Ac Cb]
+19.0
нст 3 4 км гроза с сильным дождем 10/8 720 m
[Ac Cb]
+19.0
З 5 5 км дождь 10/8 660 m
[Ac Ns]
+19.0
З 4 8 км дождь 10/8 720 m
[Ac Ns]
+19.0 1018.2
СЗ 3 6 км дождь 8/5 690 m
[Ac Ns]
+20.0 1010.0
СЗ 4 6 км гроза, дождь 8/2 1500 m
[Ac Cb]
+20.0 1010.0
З 3 16 км гроза со слабым дождем 10/2 1950 m
[Ac Cb]
+20.0 1019.8 1012.0 40.6
В 3 8 км дождь 10/2 780 m
[Ac Ns]
+20.0 1010.7
С 2 16 км слабый дождь 10/10 780 m
[Ns]
+19.0 1012.0
СЗ 3 16 км 5/5 750 м +20.0 1012.0
СЗ 3 16 км 2/2 750 м +20.0 1019.8 1012.0
СЗ 4 16 км 2/2 150 м +20.0 1012.4
16 км 2/2 330 м +21.1 +21.1 100 +26 +33 душно 1020.3 1012.7
16 км 2/2 510 м +22.8 +18.3 76 +28 +37 душно 1020.0 1012.4 +18.9 +23.9 41.7
16 км 8/8 630 м +22.8 +17.8 73 +28 +30 душно 1012.4
16 км 5/5 660 м +23.3 +17.8 71 +29 +34 душно 1012.4
16 км 2/2 900 м +24.4 +16.7 62 +28 +37 душно 1019.8 1012.0
Местоположение метеостанции Sikes Airport: широта 30.7722 долгота -86.5200 высота над уровнем моря 65 м.
В архиве по умолчанию представлена погода в Крествью за последние 1-2 суток. Обновление информации о фактической погоде в базе происходит ежечасно! Архивные данные за месяц целиком и за предыдущие месяцы Вы можете получить, выбрав интересующий диапазон дат из раскрывающегося списка и нажав кнопку "Ввод!".
Внимание! Архив погоды МЕТАР в базе сайта по станциям, не включенным в климатический монитор, хранится не более 60 дней. Нет смысла пытаться выбрать более раннюю дату.
*Определитесь, кто Вы:
Внимание! Время в таблицах - местное (без учета летнего времени). Для получения всемирного времени необходимо вычесть поправку, которая равна -6 ч.
Смотрите также архив погоды в соседних городах и на ближайших метеорологических станциях:
Партнеры нашего сайта:      
Пояснения к столбцам:
  • Ветер - указаны скорость ветра в м/с - средняя за 10 мин, порывы в срок и между сроками (в фигурных скобках) и направление, откуда дует ветер: С - северный,
  • СВ - северо-восточный, В - восточный, ЮВ - юго-восточный, Ю - южный, ЮЗ - юго-западный, З - западный, СЗ - северо-западный.
  • Видимость - горизонтальная дальность видимости в метрах или километрах. При видимости от 1 до 10 км при отсутствии осадков обычно наблюдается дымка, при ухудшении видимости до 1 км и менее - туман. В сухую погоду видимость может ухудшаться дымом, пылью или мглою.
  • Явления - указаны атмосферные явления, наблюдавшиеся в срок или в последний час перед сроком; фигурными скобками обозначены явления, наблюдавшиеся между сроками (за 1-3 часа до срока); квадратными скобками обозначены град или гололедные отложения с указанием их диаметра в мм.
  • Облачность - указаны через наклонную черту общая и нижняя облачность в баллах и высота нижней границы облаков в метрах; квадратными скобками обозначены формы облаков: Ci - перистые, Cs - перисто-слоистые, Cc - перисто-кучевые, Ac - высококучевые, As - высокослоистые, Sc - слоисто-кучевые, Ns - слоисто-дождевые, Cu - кучевые, Cb - кучево-дождевые. Подробнее классификацию облаков см. в Атласе облаков (PDF).
  • T - Температура воздуха - температура, измеренная на высоте 2 м над землей.
  • Td - Температура точки росы - температура, при понижении до которой содержащийся в воздухе водяной пар достигнет насыщения.
  • f - Относительная влажность воздуха - влажноcть воздуха, измеренная на высоте 2 м над землей.
  • Te - Эффективная температура - температура, которую ощущает одетый по сезону человек в тени. Характеристика душности погоды. При расчете учитывается влияние влажности воздуха и скорости ветра на теплоощущения человека.
  • Tes - Эффективная температура на солнце - температура, которую ощущает человек, с поправкой на солнечный нагрев. Характеристика знойности погоды. Зависит от высоты солнца над горизонтом, облачности и скорости ветра. Ночью, в пасмурную погоду, а также при ветре 12 м/с и более поправка равна нулю.
  • P - Атмосферное давление - приведенное к уровню моря атмосферное давление.
  • Po - Атмосферное давление - измеренное на уровне метеостанции атмосферное давление.
  • Tmin - Минимальная температура - минимум температуры воздуха на высоте 2 м над землей.
  • Tmax - Максимальная температура - максимум температуры воздуха на высоте 2 м над землей.
  • R - Количество осадков - Количество выпавших осадков за период времени, мм. При наведении курсора мыши на число - период времени, за который выпало указанное количество осадков.
  • R24 - Количество осадков - Количество выпавших осадков за 24 часа, мм.
  • S - Снежный покров - Высота снежного покрова, см. При наведении курсора мыши на число - состояние снежного покрова и степень покрытия местности в баллах.